Location: Miri
(4.3833°N, 113.9833°E)
Time: 02:27:26
(UTC+08:00)

ISS - Visible Passes

Search period start: 04 August 2021 00:00
Search period end: 14 August 2021 00:00
Orbit: 419 x 421 km, 51.6° (Epoch: 02 August)

Date Brightness Start Highest point End Pass type
(mag) Time Alt. Az. Time Alt. Az. Time Alt. Az.
08 Aug -1.7 20:08:30 10° NNW 20:09:56 21° N 20:09:56 21° N visible
09 Aug -1.8 19:22:10 10° NNE 19:24:18 16° NE 19:25:08 15° ENE visible
10 Aug -2.4 20:10:33 10° WNW 20:13:27 35° WSW 20:13:27 35° WSW visible
11 Aug -3.8 19:23:03 10° NW 19:26:24 89° ENE 19:28:51 17° SE visible
13 Aug -1.0 19:26:20 10° W 19:28:29 16° SW 19:30:38 10° SSW visible
